Погода в Городце

Россия / Нижегородская область     56°38′41″N   43°28′20″E
темп.,
°C
ветер,
м/с
пор.,
м/с
влажн.,
%
обл.,
%
осадки,
мм/ч
давл.,
гПа
погр.,
м
14 апреля, ср
ср1400:00+7ююв3107962 0.0 1026132
03:00+6ююв358172 0.0 102669
06:00+5ююв3789100 0.0 102591
09:00+10ююв477763 0.0 1025181
12:00+14ююв475912 0.0 1024409
15:00+16ююв474863 0.0 1022851
18:00+13юв366899 0.0 1020100
21:00+10ююв348095 0.0 102151
15 апреля, чт
чт1500:00+9ююв228560 0.0 102016
03:00+7ю22865 0.0 101911
06:00+7ююв228556 0.0 101913
09:00+11ююв237299 0.0 1019167
12:00+13зюз0161100 0.0 1019448
15:00+13ссз2261100 0.0 1019844
18:00+11ссв51181100 0.0 1019251
21:00+7св61288100 0.0 1022326
16 апреля, пт
пт1600:00+6св51186100 0.0 1022354
03:00+5св51185100 0.0 1024375
06:00+4св51183100 0.0 1024362
09:00+6всв587599 0.0 1025443
12:00+9всв586793 0.0 1025709
15:00+11всв576181 0.0 1025938
18:00+9всв596442 0.0 1026642
21:00+6св410685 0.0 1027294
17 апреля, сб
сб1700:00+5всв4106731 0.0 1028292
03:00+3св411705 0.0 1028260
06:00+2всв411695 0.0 1029268
09:00+7всв59515 0.0 1030500
12:00+9всв57412 0.0 1029886
15:00+10всв56410 0.0 10281067
18:00+9св47500 0.0 1028248
21:00+5св36700 0.0 102996
18 апреля, вс
вс1800:00+3св37750 0.0 1029125
03:00+2св37783 0.0 1030113
06:00+2св37805 0.0 1030129
09:00+7св366012 0.0 1030517
12:00+9св45505 0.0 10301167
15:00+10св574877 0.0 10301484
18:00+9св495884 0.0 1030603
21:00+6всв51070100 0.0 1032366